Weather History for Lamar, CO

Change the Weather History Date:

Wednesday, February 26, 2014

  Actual Average Record
Temperature  
Mean Temperature 29 °F 36 °F  
Max Temperature 48 °F 53 °F 78 °F (1954)
Min Temperature 10 °F 20 °F -3 °F (1960)
Degree Days  
Heating Degree Days 36 28  
Month to date heating degree days 954 824  
Since 1 July heating degree days 4238 4255  
Cooling Degree Days 0 0  
Month to date cooling degree days 0 0  
Year to date cooling degree days 0 0  
Moisture  
Dew Point 11 °F    
Average Humidity 55    
Maximum Humidity 84    
Minimum Humidity 25    
Precipitation  
Precipitation 0.00 in 0.01 in 0.50 in (1987)
Month to date precipitation 0.11 0.34  
Year to date precipitation 0.27 0.64  
Sea Level Pressure  
Sea Level Pressure 30.17 in    
Wind  
Wind Speed 5 mph (SSW)    
Max Wind Speed 14 mph    
Max Gust Speed 16 mph    
Visibility 10 miles    
Events      
T = Trace of Precipitation, MM = Missing Value Source: NWS Daily Summary

Daily Weather History Graph

Daily Weather History Graph

Search for Another Location

Airport:

Trip Planner

Search our weather history database for the weather conditions in past years. The results will help you decide how hot, cold, wet, or windy it might be!

Date:

Astronomy

Feb. 26, 2014 Rise Set
Actual Time 6:26 AM MST 5:41 PM MST
Civil Twilight 6:00 AM MST 6:07 PM MST
Nautical Twilight 5:29 AM MST 6:38 PM MST
Astronomical Twilight 4:59 AM MST 7:08 PM MST
Moon 4:12 AM MST (2/26) 3:00 PM MST (2/26)
Length of Visible Light 12h 07m
Length of Day
11h 14m
Waning Crescent, 9% of the Moon is Illuminated
Feb 26
Waning Crescent
Mar 1
New
Mar 8
First Quarter
Mar 16
Full
Mar 23
Last Quarter

Hourly Weather History & Observations

Time (MST) Temp. Windchill Dew Point Humidity Pressure Visibility Wind Dir Wind Speed Gust Speed Precip Events Conditions
12:53 AM 12.9 °F - 5.0 °F 71% 30.45 in 10.0 mi Calm Calm - N/A   Partly Cloudy
1:53 AM 12.0 °F 4.1 °F 6.1 °F 77% 30.42 in 10.0 mi SW 4.6 mph - N/A   Clear
2:53 AM 10.9 °F 0.2 °F 6.1 °F 81% 30.39 in 10.0 mi SSW 6.9 mph - N/A   Clear
3:53 AM 10.9 °F 0.2 °F 6.1 °F 81% 30.35 in 10.0 mi SSW 6.9 mph - N/A   Clear
4:53 AM 12.0 °F -1.3 °F 7.0 °F 80% 30.31 in 10.0 mi SW 10.4 mph - N/A   Clear
5:53 AM 12.9 °F 0.7 °F 7.0 °F 77% 30.29 in 10.0 mi SW 9.2 mph - N/A   Clear
6:53 AM 12.9 °F - 8.1 °F 81% 30.28 in 9.0 mi Calm Calm - N/A   Clear
7:53 AM 19.0 °F 11.1 °F 12.0 °F 74% 30.24 in 9.0 mi SSW 5.8 mph - N/A   Clear
8:53 AM 26.1 °F 21.9 °F 12.9 °F 58% 30.22 in 9.0 mi SW 3.5 mph - N/A   Clear
9:53 AM 30.0 °F 24.1 °F 14.0 °F 51% 30.20 in 10.0 mi WNW 5.8 mph - N/A   Clear
10:53 AM 34.0 °F 28.0 °F 12.9 °F 42% 30.17 in 10.0 mi WSW 6.9 mph - N/A   Clear
11:53 AM 37.9 °F - 14.0 °F 38% 30.12 in 9.0 mi Calm Calm - N/A   Clear
12:53 PM 42.1 °F - 15.1 °F 34% 30.09 in 10.0 mi Calm Calm - N/A   Clear
1:53 PM 45.0 °F - 14.0 °F 29% 30.06 in 10.0 mi North - - N/A   Clear
2:53 PM 46.0 °F 41.9 °F 12.9 °F 26% 30.04 in 10.0 mi ENE 8.1 mph - N/A   Clear
3:53 PM 46.9 °F - 12.9 °F 25% 30.01 in 10.0 mi ESE 4.6 mph - N/A   Clear
4:53 PM 46.0 °F 43.9 °F 12.9 °F 26% 30.02 in 10.0 mi SSW 4.6 mph - N/A   Clear
5:53 PM 37.9 °F 32.1 °F 14.0 °F 38% 30.05 in 10.0 mi South 8.1 mph - N/A   Clear
6:53 PM 27.0 °F 18.7 °F 12.9 °F 56% 30.10 in 10.0 mi SSW 8.1 mph - N/A   Clear
7:53 PM 27.0 °F 17.3 °F 12.9 °F 56% 30.09 in 10.0 mi SSW 10.4 mph - N/A   Clear
8:53 PM 28.0 °F - 12.0 °F 51% 30.07 in 10.0 mi Calm Calm - N/A   Clear
9:53 PM 25.0 °F - 12.9 °F 60% 30.06 in 10.0 mi Calm Calm - N/A   Clear
10:53 PM 24.1 °F 17.0 °F 14.0 °F 65% 30.03 in 10.0 mi East 5.8 mph - N/A   Clear
11:53 PM 21.0 °F - 12.9 °F 71% 30.03 in 10.0 mi Calm Calm - N/A   Clear